Weather past 2 weeks in Mamoutzou, Mayotte

Now
77 °F

Passing clouds.


Feels Like: 78 °F
Forecast: 76 / 81 °F
Wind: 6 mph from South

Location: Dzaoudzi / Pamanzi Mayotte

Current Time: Jul 6, 2015 at 7:43:41 PM

Latest Report: Jul 6, 2015 at 7:00 PM


Visibility: N/A

Pressure: 30.07 "Hg

Humidity: 83%

Dew point: 72 °F

Location of MamoutzouLocation

Historic Weather in Mamoutzou — Graph

°F

Mamoutzou temperature yesterday

Maximum temperature yesterday: 84 °F (at 10:30 AM)
Minimum temperature yesterday: 77 °F (at 2:30 AM)
Average temperature yesterday: 80 °F

Past Weeks' High & Low Weather Summary

 TemperatureHumidityPressure
High86 °F (Jun 26, 1:00 PM)94% (Jun 24, 2:00 AM)30.12 "Hg (Jun 24, 2:00 AM)
Low70 °F (Jun 30, 2:30 AM)48% (Jul 1, 10:30 AM)29.98 "Hg (Jun 30, 3:04 PM)
Average79 °F71%30.06 "Hg
* Reported Jun 21 6:00 PM — Jul 6 6:30 PM, Mamoutzou, Weather by CustomWeather, © 2015

Note: Actual official high and low records may vary slightly from our data, if they occured in-between our weather recording intervals... More about our weather records

Advertising

Mamoutzou weather history for previous 24 hours

 ConditionsComfort  
Time TempWeatherWind HumidityBarometerVisibility
6:30 PM
Mon, Jul 6
79 °FPassing clouds.6 mph74%30.07 "HgN/A
6:00 PM79 °FPassing clouds.7 mph74%30.07 "HgN/A
5:30 PM81 °FScattered clouds.8 mph70%30.07 "HgN/A
5:00 PM81 °FScattered clouds.8 mph70%30.07 "HgN/A
4:30 PM81 °FScattered clouds.8 mph70%30.07 "HgN/A
4:00 PM82 °FPartly sunny.8 mph70%30.07 "HgN/A
3:30 PM82 °FPartly sunny.10 mph66%30.04 "HgN/A
3:00 PM82 °FPartly sunny.12 mph66%30.04 "HgN/A
2:30 PM84 °FPassing clouds.12 mph62%30.07 "HgN/A
2:00 PM84 °FPassing clouds.12 mph62%30.07 "HgN/A
1:30 PM84 °FPassing clouds.10 mph62%30.07 "HgN/A
1:00 PM84 °FPassing clouds.12 mph62%30.07 "HgN/A
12:30 PM84 °FPassing clouds.12 mph62%30.07 "HgN/A
12:05 PM84 °FPassing clouds.12 mph66%30.09 "HgN/A
11:30 AM84 °FPassing clouds.15 mph66%30.09 "HgN/A
11:00 AM84 °FPassing clouds.14 mph66%30.09 "HgN/A
10:30 AM84 °FPassing clouds.13 mph66%30.12 "HgN/A
10:00 AM82 °FPassing clouds.14 mph66%30.12 "HgN/A
9:30 AM82 °FPassing clouds.14 mph66%30.12 "HgN/A
9:00 AM82 °FPassing clouds.14 mph66%30.12 "HgN/A
8:34 AM82 °FScattered clouds.13 mph70%30.12 "HgN/A
8:07 AM82 °FPassing clouds.13 mph66%30.12 "HgN/A
7:34 AM81 °FPassing clouds.13 mph70%30.12 "HgN/A
6:30 AM79 °FScattered clouds.13 mph74%30.09 "HgN/A
6:00 AM79 °FPassing clouds.14 mph74%30.09 "HgN/A
5:30 AM77 °FPassing clouds.14 mph79%30.09 "HgN/A
5:00 AM77 °FPassing clouds.14 mph79%30.07 "HgN/A
4:30 AM77 °FPassing clouds.13 mph79%30.07 "HgN/A
4:00 AM77 °FPassing clouds.12 mph83%30.07 "HgN/A
3:30 AM77 °FPassing clouds.12 mph83%30.07 "HgN/A
3:00 AM77 °FPassing clouds.10 mph83%30.07 "HgN/A
2:30 AM75 °FMild.5 mph89%30.07 "HgN/A
2:00 AM75 °FMild.5 mph89%30.09 "HgN/A
1:30 AM75 °FMild.6 mph89%30.09 "HgN/A
1:00 AM75 °FMild.5 mph89%30.09 "HgN/A
12:30 AM75 °FMild.5 mph89%30.09 "HgN/A
12:00 AM77 °FWarm.6 mph83%30.09 "HgN/A
11:30 PM
Sun, Jul 5
77 °FPassing clouds.6 mph83%30.09 "HgN/A
11:00 PM77 °FPassing clouds.6 mph83%30.12 "HgN/A
10:30 PM77 °FPassing clouds.5 mph83%30.12 "HgN/A
10:00 PM77 °FPassing clouds.5 mph83%30.12 "HgN/A
9:30 PM77 °FPassing clouds.3 mph83%30.12 "HgN/A
9:00 PM77 °FWarm.5 mph79%30.12 "HgN/A
8:30 PM77 °FWarm.6 mph79%30.09 "HgN/A
8:00 PM77 °FWarm.6 mph79%30.09 "HgN/A
7:30 PM79 °FWarm.6 mph74%30.09 "HgN/A
7:00 PM79 °FWarm.7 mph74%30.09 "HgN/A
Weather by CustomWeather, © 2015

See weather overviewHow to use our weather pages